Location: Unspecified
(0.0000°N, 0.0000°E)
Time: 10:07:01
(UTC+00:00)

Vanguard 3 - Pass Details

Date: 02 October 2023
Orbit: 507 x 3241 km, 33.3° (Epoch: 06 December)

Event Time Altitude Azimuth Distance (km) Brightness Sun altitude
Rises 16:56:27 0° 272° (W) 7,144 14.0 13.2°
Reaches altitude 10° 17:03:39 10° 286° (WNW) 5,887 13.2 11.4°
Maximum altitude 17:15:01 20° 327° (NNW) 4,355 11.3 8.6°
Drops below altitude 10° 17:23:45 10° 10° (N) 4,366 10.8 6.4°
Sets 17:28:00 0° 27° (NNE) 4,893 10.8 5.3°
